[[{"header":{"parameterUnit":"m.s-1","parameterCategory":1,"la1":30.2991,"la2":30.254,"lo1":-89.0895,"lo2":-89.0444,"dy":0.0017,"dx":0.0017,"nx":28,"ny":28,"refTime":"2024-03-21T09:00:00:Z","depth":0,"parameterNumber":2,"parameterNumberName":"U-component_of_WINDS"},"data":[0,0,0,0,0,0,0,0,0,0,0,0,0,0,0,0,0,0,0,0,0,0,0,0,0,0,0,0,0,0,0,0,0,0,0,0,0,0,0,0,0,0,0,0,0,0,0,0,0,0,0,0,0,0,0,0,0,0,5.1061,5.1062,0,5.1148,5.1149,5.115,5.1098,5.1095,5.1093,5.109,5.1178,5.1183,5.1187,0,0,0,0,0,0,0,0,0,0,0,0,0,5.0848,5.0852,5.1061,5.1062,5.1063,5.1148,5.1149,5.115,5.1098,5.1095,5.1092,5.1089,5.1177,5.1182,5.1188,0,0,0,0,0,0,0,0,0,0,0,0,0,5.0938,5.0853,5.1061,5.1047,5.1047,5.1148,5.1149,5.1151,5.1099,5.1095,5.1091,5.1088,5.1175,5.1182,5.1189,5.1307,0,0,5.121,5.1213,0,0,0,0,0,0,0,0,5.0933,5.0946,5.1048,5.1048,5.1048,5.1108,5.1106,5.1203,5.11,5.1079,5.109,5.1086,5.1158,5.1166,5.1191,5.1312,5.1315,5.1211,5.1215,5.1218,5.122,0,0,0,0,0,0,0,5.0927,5.0942,5.1095,5.1049,5.105,5.1036,5.1045,5.1124,5.1138,5.108,5.1077,5.1088,5.1157,5.1184,5.1192,5.1317,5.121,5.1217,5.1221,5.1224,5.1541,5.1545,0,0,0,0,0,0,5.0922,5.0937,5.1092,5.1098,5.098,5.1043,5.1053,5.1093,5.1137,5.1141,5.1091,5.1085,5.1174,5.1184,5.1195,5.1338,5.1218,5.1224,5.1229,5.1537,5.1542,5.1546,0,0,0,0,0,0,5.0917,5.0936,5.1089,5.1017,5.1035,5.1051,5.1096,5.1096,5.1123,5.1146,5.1148,5.1116,5.1171,5.1185,5.128,5.1341,5.1228,5.1234,5.1532,5.1538,5.1544,5.1625,0,0,0,0,0,0,5.0911,5.0935,5.098,5.1018,5.1039,5.1173,5.11,5.1101,5.1136,5.1129,5.117,5.1173,5.1169,5.127,5.1287,5.1348,5.124,5.1526,5.1534,5.1542,5.1617,5.1633,5.1647,0,0,0,0,0,5.0904,5.0999,5.0983,5.1002,5.1096,5.1177,5.1189,5.1183,5.1141,5.1187,5.1201,5.1171,5.1331,5.128,5.1299,5.1363,5.1522,5.1532,5.1541,5.161,5.163,5.1647,0,0,0,0,0,0,5.0967,5.1004,5.0986,5.1096,5.1134,5.1168,5.1225,5.1204,5.1255,5.1246,5.1237,5.1247,5.1346,5.1364,5.1307,5.1481,5.142,5.1434,5.1466,5.1485,5.15,5.1493,5.1245,0,0,0,0,0,5.0994,5.1056,5.1085,5.1179,5.1199,5.1209,5.1244,5.1237,5.1275,5.1291,5.1312,5.135,5.1409,5.1448,5.1503,5.1619,5.1628,5.1672,5.1688,5.17,5.1712,5.1776,5.1796,5.1577,5.1577,5.1577,0,0,5.1049,5.1077,5.1117,5.1192,5.1221,5.1286,5.1223,5.1294,5.1342,5.1301,5.1393,5.141,5.1452,5.1558,5.1606,5.1576,5.1774,5.1712,5.1722,5.1727,5.1788,5.1808,5.1827,5.1584,5.1582,5.1581,0,0,5.1184,5.1212,5.1294,5.1324,5.1368,5.1374,5.1394,5.1432,5.1442,5.1533,5.1505,5.1562,5.1663,5.1694,5.1724,5.1872,5.1847,5.189,5.1969,5.2032,5.2049,5.2064,5.2118,5.2137,5.1902,5.1903,5.1903,0,5.1248,5.1345,5.1338,5.1412,5.1447,5.1414,5.1497,5.1526,5.1586,5.161,5.1576,5.1704,5.1729,5.1843,5.188,5.1904,5.1927,5.1886,5.2047,5.2062,5.2076,5.2128,5.2148,5.1908,5.1907,5.1906,5.1906,0,5.1422,5.149,5.1551,5.161,5.1651,5.173,5.1735,5.1777,5.1767,5.1777,5.1871,5.1901,5.1963,5.1989,5.1979,5.2102,5.2082,5.2048,5.1986,5.2103,5.2151,5.217,5.1915,5.1913,5.1911,5.191,0,0,5.1598,5.1654,5.1677,5.1704,5.1751,5.1803,5.188,5.1941,5.1978,5.202,5.2085,5.2172,5.2141,5.2174,5.2168,5.2223,5.234,5.2181,5.2182,5.221,5.2478,5.2504,5.2527,5.2323,5.2327,5.233,5.2475,0,5.1737,5.1872,5.1869,5.1994,5.2057,5.2027,5.2095,5.2131,5.2142,5.2197,5.221,5.2272,5.2226,5.2246,5.2299,5.2314,5.2393,5.2304,5.2383,5.2386,5.2374,5.2552,5.258,5.2715,5.2493,5.2497,5.2499,0,5.1916,5.1966,5.2099,5.2137,5.2164,5.2224,5.228,5.2333,5.2374,5.2378,5.2416,5.2402,5.248,5.2416,5.2524,5.2464,5.2496,5.2509,5.2514,5.2521,5.245,5.2565,5.2758,5.2778,5.2528,5.2526,5.2524,0,5.2033,5.2133,5.2226,5.225,5.2297,5.234,5.2362,5.2399,5.2436,5.2485,5.2509,5.2566,5.2598,5.2642,5.2643,5.2597,5.2753,5.2689,5.2759,5.2759,5.2794,5.2792,5.2995,5.2814,5.2814,5.2813,5.2813,0,5.2189,5.2271,5.2279,5.2336,5.2427,5.2423,5.2513,5.2531,5.2564,5.2624,5.2601,5.2657,5.2655,5.2713,5.2714,5.2804,5.2818,5.2824,5.2823,5.2827,5.2826,5.2848,5.2839,5.2819,5.2817,5.2816,5.2815,0,5.2335,5.2343,5.2442,5.2479,5.249,5.2556,5.2588,5.2642,5.2652,5.2728,5.2745,5.2761,5.2828,5.2833,5.291,5.2911,5.302,5.3009,5.3007,5.3005,5.3075,5.3069,5.33,5.3331,5.3129,5.3131,5.3133,0,5.2434,5.2497,5.2541,5.258,5.2604,5.2667,5.2705,5.2703,5.2743,5.2795,5.2843,5.2908,5.2959,5.3067,5.3085,5.3144,5.3134,5.3212,5.3143,5.3145,5.3137,5.3133,5.314,5.3225,5.3227,5.3229,5.3231,0,5.2609,5.261,5.2667,5.2725,5.2771,5.2817,5.286,5.2892,5.2896,5.2943,5.3011,5.3051,5.313,5.3195,5.3253,5.3275,5.3254,5.3252,5.3272,5.3275,5.3272,5.3276,5.3044,5.3247,5.3245,5.3244,5.3243,5.3242,5.2735,5.279,5.283,5.2894,5.2926,5.2966,5.302,5.3037,5.3094,5.3158,5.3154,5.3229,5.3269,5.3345,5.3371,5.343,5.3404,5.3432,5.344,5.3447,5.3455,5.3262,5.3441,5.344,5.344,5.344,5.3439,0,5.291,5.2935,5.2993,5.3054,5.3104,5.3081,5.3127,5.317,5.3238,5.3276,5.3328,5.3407,5.347,5.3493,5.3554,5.3597,5.3589,5.3614,5.3611,5.3616,5.3474,5.3451,5.3619,5.3619,5.3619,5.3619,5.3619,5.3619,5.3007,5.3099,5.3105,5.3213,5.3237,5.3311,5.334,5.3377,5.3408,5.3498,5.355,5.3565,5.3598,5.3662,5.3719,5.3724,5.3748,5.3776,5.3778,5.3644,5.3626,5.3609,5.3588,5.3782,5.3782,5.3915,5.3917,5.3917]},{"header":{"parameterUnit":"m.s-1","parameterCategory":1,"la1":30.2991,"la2":30.254,"lo1":-89.0895,"lo2":-89.0444,"dy":0.0017,"dx":0.0017,"nx":28,"ny":28,"refTime":"2024-03-21T09:00:00:Z","depth":0,"parameterNumber":3,"parameterNumberName":"V-component_of_WINDS"},"data":[0,0,0,0,0,0,0,0,0,0,0,0,0,0,0,0,0,0,0,0,0,0,0,0,0,0,0,0,0,0,0,0,0,0,0,0,0,0,0,0,0,0,0,0,0,0,0,0,0,0,0,0,0,0,0,0,0,0,-4.4405,-4.4406,0,-4.4486,-4.4487,-4.4488,-4.4452,-4.445,-4.4448,-4.4446,-4.4528,-4.4532,-4.4536,0,0,0,0,0,0,0,0,0,0,0,0,0,-4.4219,-4.4223,-4.4405,-4.4406,-4.4407,-4.4486,-4.4487,-4.4488,-4.4452,-4.445,-4.4448,-4.4445,-4.4527,-4.4532,-4.4536,0,0,0,0,0,0,0,0,0,0,0,0,0,-4.43,-4.4224,-4.4405,-4.4399,-4.4399,-4.4486,-4.4487,-4.4489,-4.4453,-4.445,-4.4447,-4.4444,-4.4525,-4.4531,-4.4537,-4.4634,0,0,-4.4556,-4.4558,0,0,0,0,0,0,0,0,-4.4296,-4.4307,-4.4399,-4.4399,-4.44,-4.4456,-4.4452,-4.4537,-4.4454,-4.4433,-4.4446,-4.4443,-4.4506,-4.4514,-4.4536,-4.4638,-4.4642,-4.4556,-4.456,-4.4562,-4.4564,0,0,0,0,0,0,0,-4.429,-4.4303,-4.4437,-4.44,-4.4401,-4.4392,-4.44,-4.4468,-4.4485,-4.4434,-4.4432,-4.4442,-4.4506,-4.453,-4.4537,-4.4643,-4.4556,-4.4561,-4.4565,-4.4567,-4.4831,-4.4834,0,0,0,0,0,0,-4.4284,-4.4299,-4.4434,-4.4439,-4.4339,-4.4398,-4.4407,-4.4441,-4.4484,-4.4488,-4.4444,-4.444,-4.4521,-4.453,-4.454,-4.4658,-4.4562,-4.4568,-4.4571,-4.4827,-4.4831,-4.4835,0,0,0,0,0,0,-4.4281,-4.4297,-4.4431,-4.4369,-4.4385,-4.4404,-4.4443,-4.4444,-4.4468,-4.4492,-4.4495,-4.4465,-4.4519,-4.4531,-4.4612,-4.466,-4.4571,-4.4576,-4.4823,-4.4829,-4.4833,-4.4894,0,0,0,0,0,0,-4.4275,-4.4296,-4.4333,-4.437,-4.4389,-4.4502,-4.4446,-4.4448,-4.4478,-4.4473,-4.4513,-4.4516,-4.4518,-4.4603,-4.4618,-4.4667,-4.4581,-4.4819,-4.4826,-4.4832,-4.4887,-4.49,-4.4911,0,0,0,0,0,-4.4269,-4.4346,-4.4335,-4.4351,-4.4435,-4.4504,-4.4515,-4.4516,-4.4482,-4.452,-4.4536,-4.4515,-4.4652,-4.4611,-4.4628,-4.4679,-4.4816,-4.4824,-4.4831,-4.4882,-4.4898,-4.4911,0,0,0,0,0,0,-4.4313,-4.4351,-4.4339,-4.443,-4.4465,-4.4498,-4.4546,-4.4532,-4.4576,-4.4569,-4.4568,-4.4577,-4.466,-4.4678,-4.4631,-4.4777,-4.4729,-4.474,-4.4762,-4.4777,-4.4789,-4.4783,-4.4586,0,0,0,0,0,-4.4334,-4.4387,-4.4417,-4.4494,-4.4512,-4.4526,-4.4556,-4.4554,-4.4589,-4.4604,-4.4625,-4.466,-4.4711,-4.4745,-4.4793,-4.489,-4.4898,-4.4934,-4.4945,-4.4955,-4.4965,-4.5018,-4.5035,-4.486,-4.486,-4.486,0,0,-4.4377,-4.4404,-4.4437,-4.4504,-4.453,-4.4586,-4.4539,-4.4599,-4.464,-4.4612,-4.469,-4.4707,-4.4746,-4.4835,-4.4876,-4.4853,-4.5015,-4.4965,-4.4972,-4.4977,-4.5028,-4.5044,-4.5059,-4.4865,-4.4864,-4.4863,0,0,-4.4483,-4.4509,-4.4577,-4.4605,-4.4646,-4.4655,-4.4671,-4.4708,-4.4718,-4.4796,-4.4777,-4.4826,-4.4914,-4.4943,-4.4969,-4.5089,-4.5071,-4.5104,-4.5166,-4.5219,-4.5232,-4.5245,-4.5288,-4.5304,-4.5114,-4.5114,-4.5114,0,-4.4531,-4.4614,-4.4613,-4.4676,-4.4706,-4.4685,-4.4754,-4.4781,-4.4836,-4.4857,-4.4831,-4.4942,-4.4966,-4.5063,-4.5092,-4.5114,-4.5133,-4.51,-4.523,-4.5243,-4.5254,-4.5296,-4.5312,-4.5118,-4.5118,-4.5117,-4.5117,0,-4.4672,-4.473,-4.478,-4.4834,-4.487,-4.4936,-4.4945,-4.4982,-4.4977,-4.4989,-4.5069,-4.5098,-4.5152,-4.5175,-4.517,-4.5271,-4.5256,-4.523,-4.5182,-4.5275,-4.5314,-4.533,-4.5123,-4.5122,-4.5121,-4.512,0,0,-4.4808,-4.4862,-4.4881,-4.4906,-4.495,-4.4995,-4.506,-4.5114,-4.5146,-4.5184,-4.524,-4.5315,-4.5292,-4.5322,-4.532,-4.5366,-4.5461,-4.5335,-4.5336,-4.5358,-4.5576,-4.5595,-4.5614,-4.5449,-4.5452,-4.5455,-4.5573,0,-4.4919,-4.5033,-4.5035,-4.514,-4.5194,-4.5175,-4.5232,-4.5266,-4.5279,-4.5327,-4.5341,-4.5395,-4.536,-4.5378,-4.5423,-4.544,-4.5504,-4.5431,-4.5501,-4.5504,-4.5493,-4.5634,-4.5655,-4.5765,-4.5588,-4.5591,-4.5592,0,-4.5063,-4.5107,-4.5218,-4.5256,-4.5279,-4.533,-4.5381,-4.5426,-4.5464,-4.5471,-4.5505,-4.5497,-4.5564,-4.5514,-4.5607,-4.5557,-4.5586,-4.5599,-4.5603,-4.561,-4.5554,-4.5646,-4.58,-4.5817,-4.5616,-4.5614,-4.5613,0,-4.5153,-4.524,-4.5318,-4.534,-4.5386,-4.5422,-4.5443,-4.5478,-4.5511,-4.5555,-4.5577,-4.5628,-4.5656,-4.5696,-4.5702,-4.5665,-4.5796,-4.5746,-4.5804,-4.5804,-4.5832,-4.5831,-4.5994,-4.585,-4.5849,-4.5849,-4.5849,0,-4.5277,-4.5345,-4.5359,-4.5407,-4.5484,-4.5486,-4.5562,-4.558,-4.5612,-4.5663,-4.5649,-4.5698,-4.5703,-4.5753,-4.5758,-4.5835,-4.5847,-4.5855,-4.5856,-4.5857,-4.5856,-4.5876,-4.5869,-4.5853,-4.5852,-4.5851,-4.5851,0,-4.539,-4.5402,-4.5486,-4.5523,-4.5534,-4.5589,-4.5621,-4.5667,-4.5679,-4.5745,-4.576,-4.5779,-4.5838,-4.5848,-4.5917,-4.592,-4.6012,-4.6005,-4.6,-4.5999,-4.6057,-4.6052,-4.6239,-4.6264,-4.6103,-4.6104,-4.6106,0,-4.5469,-4.5522,-4.5565,-4.5598,-4.5621,-4.5676,-4.571,-4.5714,-4.575,-4.5798,-4.5839,-4.5896,-4.5942,-4.6037,-4.6057,-4.611,-4.6104,-4.6166,-4.6112,-4.6112,-4.6106,-4.6104,-4.6109,-4.6177,-4.6178,-4.618,-4.6181,0,-4.5608,-4.5611,-4.5661,-4.5713,-4.5754,-4.5796,-4.5834,-4.5863,-4.5872,-4.5913,-4.5974,-4.6009,-4.608,-4.6138,-4.6191,-4.6212,-4.6199,-4.6198,-4.6214,-4.6216,-4.6212,-4.6216,-4.603,-4.6194,-4.6192,-4.6191,-4.6191,-4.619,-4.5707,-4.5754,-4.5792,-4.5848,-4.5878,-4.5915,-4.5961,-4.5979,-4.6029,-4.6088,-4.6087,-4.6154,-4.6191,-4.6261,-4.6286,-4.6338,-4.6318,-4.6342,-4.6348,-4.6354,-4.636,-4.6203,-4.6348,-4.6347,-4.6347,-4.6347,-4.6347,0,-4.5846,-4.587,-4.5922,-4.5977,-4.6022,-4.6005,-4.6048,-4.6086,-4.6145,-4.6182,-4.6228,-4.6298,-4.6354,-4.6379,-4.6434,-4.6471,-4.6467,-4.6486,-4.6484,-4.6489,-4.6374,-4.6355,-4.6489,-4.6489,-4.6489,-4.6489,-4.6489,-4.6489,-4.5924,-4.6003,-4.6011,-4.6105,-4.6128,-4.6193,-4.6219,-4.6254,-4.6283,-4.6362,-4.6409,-4.6425,-4.6457,-4.6515,-4.6566,-4.6572,-4.6594,-4.6616,-4.6619,-4.6511,-4.6497,-4.6483,-4.6465,-4.662,-4.662,-4.673,-4.6731,-4.6732]}]]